| time (UTC) | temp C | wind direction | speed KPH | gust KPH | rain 1hr cm | rain 24hr cm | rain mn cm | humidity % | barometer mb |
| 20260503180904 | 25 | 357 | 3.2 | 3.2 | 0.00 | 0.00 | 0.00 | 43 | 1013.3 |
| 20260503175403 | 23 | 286 | 1.6 | 3.2 | 0.00 | 0.00 | 0.00 | 49 | 1013.4 |
| 20260503173902 | 22 | 282 | 4.8 | 4.8 | 0.00 | 0.00 | 0.00 | 54 | 1013.5 |
| 20260503172359 | 21 | 257 | 3.2 | 3.2 | 0.00 | 0.00 | 0.00 | 56 | 1013.6 |
| 20260503170855 | 20 | 338 | 3.2 | 3.2 | 0.00 | 0.00 | 0.00 | 60 | 1013.6 |
| 20260503150837 | 14 | 347 | 0.0 | 1.6 | 0.00 | 0.00 | 0.00 | 81 | 1014.0 |
| 20260503130811 | 10 | 158 | 0.0 | 0.0 | 0.00 | 0.00 | 0.00 | 92 | 1013.6 |
| 20260503110801 | 13 | 60 | 4.8 | 4.8 | 0.00 | 0.00 | 0.00 | 81 | 1013.8 |
| 20260503080726 | 12 | 62 | 3.2 | 3.2 | 0.00 | 0.00 | 0.00 | 94 | 1014.7 |
| 20260503072220 | 12 | 44 | 0.0 | 1.6 | 0.00 | 0.00 | 0.00 | 92 | 1014.5 |
| 20260503070716 | 13 | 192 | 0.0 | 0.0 | 0.00 | 0.00 | 0.00 | 91 | 1014.6 |
| 20260503053656 | 15 | 206 | 4.8 | 4.8 | 0.00 | 0.00 | 0.00 | 81 | 1014.7 |
| 20260503052153 | 15 | 55 | 0.0 | 1.6 | 0.00 | 0.00 | 0.00 | 82 | 1014.3 |
| 20260503050649 | 16 | 155 | 0.0 | 0.0 | 0.00 | 0.00 | 0.00 | 82 | 1014.4 |
| 20260503045146 | 16 | 351 | 3.2 | 3.2 | 0.00 | 0.00 | 0.00 | 81 | 1014.5 |
| 20260503043642 | 17 | 48 | 3.2 | 3.2 | 0.00 | 0.00 | 0.00 | 77 | 1014.6 |
| 20260503042138 | 17 | 65 | 6.4 | 6.4 | 0.00 | 0.00 | 0.00 | 76 | 1014.5 |
| 20260503040635 | 17 | 51 | 4.8 | 4.8 | 0.00 | 0.00 | 0.00 | 77 | 1014.8 |
| 20260503035133 | 16 | 68 | 3.2 | 3.2 | 0.00 | 0.03 | 0.03 | 79 | 1014.6 |
| 20260503033630 | 16 | 123 | 0.0 | 0.0 | 0.00 | 0.03 | 0.03 | 80 | 1014.7 |
| 20260503032130 | 17 | 158 | 0.0 | 0.0 | 0.00 | 0.03 | 0.03 | 75 | 1014.8 |
| 20260503030626 | 17 | 155 | 6.4 | 6.4 | 0.00 | 0.03 | 0.03 | 76 | 1014.8 |
| 20260503025124 | 18 | 173 | 3.2 | 3.2 | 0.00 | 0.03 | 0.03 | 73 | 1014.6 |
| 20260503023620 | 18 | 187 | 1.6 | 1.6 | 0.00 | 0.03 | 0.03 | 69 | 1014.7 |
| 20260503022120 | 19 | 149 | 12.9 | 12.9 | 0.00 | 0.03 | 0.03 | 67 | 1014.3 |
| 20260503020617 | 19 | 232 | 4.8 | 6.4 | 0.00 | 0.03 | 0.03 | 67 | 1014.1 |
| 20260503015113 | 20 | 222 | 3.2 | 4.8 | 0.00 | 0.03 | 0.03 | 65 | 1013.7 |
| 20260503013610 | 20 | 281 | 1.6 | 1.6 | 0.00 | 0.03 | 0.03 | 61 | 1013.6 |
| 20260503012107 | 20 | 221 | 0.0 | 1.6 | 0.00 | 0.03 | 0.03 | 62 | 1013.7 |
| 20260503010602 | 20 | 243 | 1.6 | 1.6 | 0.00 | 0.03 | 0.03 | 62 | 1013.8 |
| 20260503005100 | 21 | 260 | 0.0 | 0.0 | 0.00 | 0.03 | 0.03 | 62 | 1013.7 |
| 20260503003556 | 20 | 342 | 1.6 | 1.6 | 0.00 | 0.03 | 0.03 | 63 | 1013.7 |
| 20260503002053 | 21 | 319 | 0.0 | 1.6 | 0.00 | 0.03 | 0.03 | 60 | 1013.7 |
| 20260503000550 | 20 | 301 | 3.2 | 3.2 | 0.00 | 0.03 | 0.03 | 61 | 1013.7 |
| 20260502235046 | 20 | 311 | 4.8 | 4.8 | 0.00 | 0.03 | 0.03 | 60 | 1013.7 |
| 20260502233546 | 20 | 326 | 6.4 | 6.4 | 0.00 | 0.03 | 0.03 | 60 | 1013.7 |
| 20260502232042 | 20 | 213 | 0.0 | 0.0 | 0.00 | 0.03 | 0.03 | 60 | 1014.0 |
| 20260502230541 | 21 | 340 | 6.4 | 9.7 | 0.00 | 0.03 | 0.03 | 60 | 1014.1 |
| 20260502225037 | 20 | 346 | 1.6 | 3.2 | 0.00 | 0.03 | 0.03 | 60 | 1014.1 |
| 20260502223534 | 20 | 285 | 0.0 | 1.6 | 0.00 | 0.03 | 0.03 | 62 | 1014.5 |
| 20260502222031 | 19 | 49 | 4.8 | 4.8 | 0.00 | 0.03 | 0.03 | 64 | 1014.6 |
| 20260502220531 | 18 | 343 | 1.6 | 3.2 | 0.00 | 0.03 | 0.03 | 64 | 1015.1 |
| 20260502215028 | 18 | 74 | 4.8 | 4.8 | 0.00 | 0.03 | 0.03 | 66 | 1015.2 |
| 20260502213525 | 18 | 280 | 1.6 | 3.2 | 0.00 | 0.03 | 0.03 | 68 | 1015.4 |
| 20260502212025 | 17 | 272 | 4.8 | 4.8 | 0.00 | 0.03 | 0.03 | 67 | 1015.5 |
| 20260502210521 | 17 | 259 | 0.0 | 1.6 | 0.00 | 0.03 | 0.03 | 70 | 1015.6 |
| 20260502205017 | 17 | 201 | 4.8 | 4.8 | 0.00 | 0.03 | 0.03 | 68 | 1016.0 |
| 20260502203515 | 16 | 173 | 3.2 | 4.8 | 0.00 | 0.03 | 0.03 | 72 | 1016.3 |
| 20260502202012 | 15 | 256 | 0.0 | 1.6 | 0.00 | 0.03 | 0.03 | 74 | 1016.4 |
| 20260502200512 | 16 | 237 | 1.6 | 3.2 | 0.00 | 0.03 | 0.03 | 74 | 1016.6 |
| 20260502195009 | 15 | 168 | 0.0 | 0.0 | 0.00 | 0.03 | 0.03 | 76 | 1016.8 |
| 20260502193506 | 13 | 234 | 3.2 | 4.8 | 0.00 | 0.03 | 0.03 | 78 | 1016.8 |
| 20260502192001 | 13 | 316 | 4.8 | 4.8 | 0.00 | 0.03 | 0.03 | 80 | 1017.0 |
| 20260502190459 | 13 | 270 | 3.2 | 3.2 | 0.00 | 0.03 | 0.03 | 83 | 1017.0 |
| 20260502184954 | 13 | 174 | 3.2 | 4.8 | 0.00 | 0.03 | 0.03 | 80 | 1017.2 |
| 20260502183454 | 12 | 332 | 6.4 | 9.7 | 0.00 | 0.03 | 0.03 | 84 | 1017.1 |